Tracking 27122 objects as of 25-Mar-2023
HD Live streaming from Space Station
objects crossing your sky now

CHANG'E 5


CHANG'E 5 is no longer on orbit


NORAD ID: 47097
Int'l Code: 2020-087A
Perigee: N/A
Apogee: N/A
Inclination: N/A
Period: N/A
Semi major axis: N/A
RCS: N/A
Launch date: November 23, 2020
Source: People's Republic of China (PRC)
Launch site: Wenchang Satellite Launch Center (WSC)
Decay date: 2020-12-16
Your satellite tracking list
Your tracking list is empty




NASA's NSSDC Master Catalog

Two Line Element Set (TLE):
1 47097U 20087A   23069.49546640 -.00041413  00000-0  00000+0 0  9995
2 47097  28.0777   4.9556 5332648 234.3857 331.8997  0.02066185   538
Source of the keplerian elements: AFSPC